• In Uzbekistan
  • List of Countries
  • For 7 days
  • Water Temperature
  • Satellite Maps
  • Weather Map
  • Weather Widgets
  • user-avatar
    Login

    Hourly Weather Bielowka

    Today, 21 April, Saturday

    Time Temperature Precipitation Wind Pressure Humidity
    00:00 +9°C° 0 mm 2 mps 732 mmHg 69%
    01:00 +8°C° 0 mm 2 mps 732 mmHg 70%
    02:00 +8°C° 0 mm 2 mps 731 mmHg 70%
    03:00 +8°C° 0 mm 2 mps 731 mmHg 69%
    04:00 +8°C° 0 mm 2 mps 730 mmHg 69%
    05:00 +10°C° 0 mm 3 mps 730 mmHg 65%
    06:00 +11°C° 0 mm 3 mps 730 mmHg 61%
    07:00 +13°C° 0 mm 4 mps 730 mmHg 57%
    08:00 +15°C° 0 mm 4 mps 730 mmHg 53%
    09:00 +17°C° 0 mm 5 mps 730 mmHg 49%
    10:00 +20°C° 0 mm 5 mps 730 mmHg 45%
    11:00 +21°C° 0 mm 5 mps 729 mmHg 44%
    12:00 +22°C° 0 mm 5 mps 729 mmHg 43%
    13:00 +25°C° 0 mm 5 mps 729 mmHg 42%
    14:00 +23°C° 0 mm 5 mps 728 mmHg 45%
    15:00 +23°C° 0 mm 4 mps 728 mmHg 48%
    16:00 +23°C° 0 mm 4 mps 728 mmHg 51%
    17:00 +21°C° 0.2 mm 3 mps 728 mmHg 59%
    18:00 +19°C° 0.2 mm 3 mps 728 mmHg 67%
    19:00 +16°C° 0.2 mm 2 mps 728 mmHg 76%
    20:00 +16°C° 0 mm 2 mps 728 mmHg 76%
    21:00 +15°C° 0 mm 2 mps 728 mmHg 77%
    22:00 +15°C° 0 mm 1 mps 728 mmHg 78%
    23:00 +14°C° 0 mm 1 mps 728 mmHg 80%

    Tomorrow, 22 April, Sunday

    Time Temperature Precipitation Wind Pressure Humidity
    00:00 +14°C° 0 mm 1 mps 729 mmHg 82%
    01:00 +13°C° 0 mm 1 mps 729 mmHg 83%
    02:00 +12°C° 0 mm 1 mps 729 mmHg 85%
    03:00 +11°C° 0 mm 1 mps 729 mmHg 86%
    04:00 +10°C° 0 mm 1 mps 728 mmHg 87%
    05:00 +11°C° 0 mm 1 mps 729 mmHg 81%
    06:00 +12°C° 0 mm 1 mps 729 mmHg 75%
    07:00 +13°C° 0 mm 1 mps 729 mmHg 69%
    08:00 +14°C° 0 mm 2 mps 729 mmHg 61%
    09:00 +15°C° 0 mm 2 mps 729 mmHg 53%
    10:00 +17°C° 0 mm 3 mps 729 mmHg 45%
    11:00 +17°C° 0 mm 3 mps 729 mmHg 43%
    12:00 +18°C° 0 mm 3 mps 729 mmHg 41%
    13:00 +19°C° 0 mm 3 mps 729 mmHg 38%
    14:00 +19°C° 0 mm 3 mps 728 mmHg 39%
    15:00 +18°C° 0 mm 3 mps 728 mmHg 40%
    16:00 +18°C° 0 mm 3 mps 728 mmHg 42%
    17:00 +16°C° 0 mm 2 mps 728 mmHg 48%
    18:00 +14°C° 0 mm 1 mps 727 mmHg 54%
    19:00 +12°C° 0 mm 1 mps 727 mmHg 60%
    20:00 +11°C° 0 mm 1 mps 728 mmHg 61%
    21:00 +10°C° 0 mm 0 mps 728 mmHg 63%
    22:00 +9°C° 0 mm 0 mps 728 mmHg 65%
    23:00 +9°C° 0 mm 0 mps 728 mmHg 66%

    Day after tomorrow, 23 April, Monday

    Time Temperature Precipitation Wind Pressure Humidity
    00:00 +8°C° 0 mm 0 mps 728 mmHg 67%
    01:00 +8°C° 0 mm 0 mps 727 mmHg 68%
    02:00 +7°C° 0 mm 0 mps 727 mmHg 69%
    03:00 +7°C° 0 mm 0 mps 727 mmHg 70%
    04:00 +8°C° 0 mm 1 mps 727 mmHg 71%
    05:00 +10°C° 0 mm 1 mps 727 mmHg 66%
    06:00 +11°C° 0 mm 0 mps 727 mmHg 61%
    07:00 +12°C° 0 mm 0 mps 727 mmHg 57%
    08:00 +15°C° 0 mm 1 mps 727 mmHg 52%
    09:00 +18°C° 0 mm 1 mps 727 mmHg 48%
    10:00 +20°C° 0 mm 1 mps 727 mmHg 43%
    11:00 +21°C° 0 mm 1 mps 727 mmHg 42%
    12:00 +21°C° 0 mm 2 mps 727 mmHg 40%
    13:00 +23°C° 0 mm 2 mps 726 mmHg 39%
    14:00 +23°C° 0 mm 2 mps 726 mmHg 42%
    15:00 +23°C° 0 mm 2 mps 725 mmHg 45%
    16:00 +23°C° 0 mm 2 mps 725 mmHg 49%
    17:00 +20°C° 0.6 mm 3 mps 725 mmHg 58%
    18:00 +19°C° 0.6 mm 3 mps 724 mmHg 67%
    19:00 +17°C° 0.6 mm 3 mps 724 mmHg 77%
    20:00 +16°C° 1.1 mm 3 mps 724 mmHg 81%
    21:00 +16°C° 1.1 mm 2 mps 724 mmHg 86%
    22:00 +15°C° 1.1 mm 2 mps 724 mmHg 91%
    23:00 +14°C° 0.3 mm 2 mps 724 mmHg 92%

    24 April, Tuesday

    Time Temperature Precipitation Wind Pressure Humidity
    00:00 +14°C° 0.3 mm 2 mps 724 mmHg 93%
    01:00 +13°C° 0.3 mm 2 mps 724 mmHg 95%
    02:00 +13°C° 0.5 mm 2 mps 724 mmHg 95%
    03:00 +13°C° 0.5 mm 3 mps 724 mmHg 96%
    04:00 +13°C° 0.5 mm 3 mps 725 mmHg 97%
    05:00 +13°C° 0.4 mm 3 mps 725 mmHg 94%
    06:00 +13°C° 0.4 mm 4 mps 725 mmHg 92%
    07:00 +13°C° 0.4 mm 5 mps 726 mmHg 89%
    08:00 +14°C° 0.1 mm 5 mps 726 mmHg 81%
    09:00 +14°C° 0.1 mm 5 mps 727 mmHg 74%
    10:00 +15°C° 0.1 mm 4 mps 728 mmHg 66%
    11:00 +17°C° 0.1 mm 4 mps 727 mmHg 63%
    12:00 +17°C° 0.1 mm 4 mps 727 mmHg 60%
    13:00 +18°C° 0.1 mm 4 mps 727 mmHg 57%
    14:00 +18°C° 0 mm 4 mps 727 mmHg 57%
    15:00 +18°C° 0 mm 4 mps 727 mmHg 56%
    16:00 +18°C° 0 mm 4 mps 727 mmHg 56%
    17:00 +16°C° 0 mm 3 mps 727 mmHg 62%
    18:00 +15°C° 0 mm 2 mps 727 mmHg 68%
    19:00 +13°C° 0 mm 1 mps 727 mmHg 74%
    20:00 +13°C° 0 mm 2 mps 727 mmHg 75%
    21:00 +12°C° 0 mm 2 mps 727 mmHg 76%
    22:00 +12°C° 0 mm 2 mps 727 mmHg 76%
    23:00 +11°C° 0 mm 3 mps 727 mmHg 76%

    25 April, Wednesday

    Time Temperature Precipitation Wind Pressure Humidity
    00:00 +11°C° 0 mm 3 mps 727 mmHg 75%
    01:00 +11°C° 0 mm 3 mps 727 mmHg 75%
    02:00 +10°C° 0 mm 3 mps 727 mmHg 77%
    03:00 +10°C° 0 mm 3 mps 727 mmHg 79%
    04:00 +10°C° 0 mm 3 mps 727 mmHg 81%
    05:00 +11°C° 0 mm 3 mps 727 mmHg 77%
    06:00 +13°C° 0 mm 3 mps 727 mmHg 74%
    07:00 +14°C° 0 mm 3 mps 727 mmHg 70%
    08:00 +17°C° 0 mm 4 mps 727 mmHg 64%
    09:00 +18°C° 0 mm 4 mps 727 mmHg 58%
    10:00 +20°C° 0 mm 4 mps 727 mmHg 52%
    11:00 +21°C° 0 mm 4 mps 727 mmHg 51%
    12:00 +22°C° 0 mm 5 mps 727 mmHg 50%
    13:00 +23°C° 0 mm 5 mps 726 mmHg 49%
    14:00 +23°C° 0 mm 5 mps 726 mmHg 50%
    15:00 +23°C° 0 mm 4 mps 725 mmHg 51%
    16:00 +23°C° 0 mm 4 mps 725 mmHg 52%
    17:00 +21°C° 0.1 mm 3 mps 724 mmHg 58%
    18:00 +19°C° 0.1 mm 3 mps 724 mmHg 64%
    19:00 +17°C° 0.1 mm 3 mps 724 mmHg 70%
    20:00 +17°C° 0.4 mm 3 mps 724 mmHg 75%
    21:00 +16°C° 0.4 mm 3 mps 724 mmHg 80%
    22:00 +16°C° 0.4 mm 3 mps 724 mmHg 85%
    23:00 +16°C° 0.3 mm 3 mps 724 mmHg 86%

    26 April, Thursday

    Time Temperature Precipitation Wind Pressure Humidity
    00:00 +14°C° 0.3 mm 4 mps 724 mmHg 86%
    01:00 +14°C° 0.3 mm 4 mps 723 mmHg 87%
    02:00 +14°C° 0.2 mm 4 mps 723 mmHg 87%
    03:00 +14°C° 0.2 mm 3 mps 723 mmHg 88%
    04:00 +13°C° 0.2 mm 3 mps 723 mmHg 88%
    05:00 +14°C° 0.2 mm 3 mps 724 mmHg 86%
    06:00 +16°C° 0.2 mm 3 mps 724 mmHg 84%
    07:00 +15°C° 0.2 mm 4 mps 724 mmHg 83%
    08:00 +17°C° 0.1 mm 3 mps 724 mmHg 80%
    09:00 +17°C° 0.1 mm 3 mps 725 mmHg 78%
    10:00 +18°C° 0.1 mm 3 mps 725 mmHg 76%
    11:00 +17°C° 1.1 mm 3 mps 725 mmHg 79%
    12:00 +16°C° 1.1 mm 3 mps 724 mmHg 83%
    13:00 +16°C° 1.1 mm 3 mps 724 mmHg 86%
    14:00 +16°C° 0.5 mm 3 mps 724 mmHg 85%
    15:00 +16°C° 0.5 mm 3 mps 724 mmHg 83%
    16:00 +16°C° 0.5 mm 3 mps 724 mmHg 82%
    17:00 +14°C° 0.2 mm 4 mps 724 mmHg 83%
    18:00 +13°C° 0.2 mm 4 mps 725 mmHg 84%
    19:00 +12°C° 0.2 mm 4 mps 725 mmHg 85%
    20:00 +11°C° 0.1 mm 3 mps 725 mmHg 85%
    21:00 +11°C° 0.1 mm 3 mps 726 mmHg 84%
    22:00 +10°C° 0.1 mm 3 mps 727 mmHg 83%
    23:00 +9°C° 0 mm 3 mps 727 mmHg 83%
    Show more